{"data":{"norad_id":62335,"epoch":"2026-05-25T04:29:03.723360Z","epoch_age_seconds":58182,"freshness":"FRESH","line1":"1 62335U 24241C   26145.18684865  .00007596  00000+0  42052-3 0  9998","line2":"2 62335  97.5273  92.9844 0002421  85.5062 274.6447 15.14114537 79333","mean_motion":15.14114537,"eccentricity":0.0002421,"inclination_deg":97.5273,"raan_deg":92.9844,"arg_perigee_deg":85.5062,"mean_anomaly_deg":274.6447,"bstar":0.00042052,"rev_number":7933,"period_min":95.105090454594,"perigee_km":521.99713291002,"apogee_km":525.33898692003,"semimajor_km":6901.805059915,"source":"CELESTRAK","updated_at":"2026-05-25T13:38:02.939712Z"}}